Starlink 30404

operational
NORAD ID: 57853 Int'l Des: 2023-141 Owner: SPXS Country: US Constellation: starlink
LEOCIRCULAR

Starlink 30404について

説明を読み込み中...

リアルタイム位置

3D地球を読み込み中...

次回通過

高度履歴

Altitude vs Time

uPlot chart will show altitude changes over time

軌道要素

1 57853U 23141P 25257.60325168 .00001105 00000-0 49471-4 0 9997
2 57853 53.1630 21.6514 0001339 89.0885 271.0269 15.30176593113373
Epoch: Sep 14, 2025 • Age: 20 hours

現在のステータス

高度 481.7 km
速度 7.62 km/s
衛星直下点 -21.42°S, 155°W
打ち上げ日 Sep 12, 2023
運用期間 2 years
タイプ internet

技術仕様

分類 Payload
質量 730.00 kg
乾燥質量 700.00 kg
総質量 730.00 kg
長さ 0.30 m
直径 4.10 m
スパン 29.00 m
形状 Box + pan
製造者 SPXS
バスタイプ Starlink V2M
フェーズステータス In Orbit
所有者/国 SPXS/US

大規模コンステレーション

Loading constellations...